User: anonymous   Login
Location: Albany
(35.0000°S, 118.0000°E)
Time: 13:57:58
(UTC-05:00)
Language:

JAS-1B - Orbit

View from above orbital plane
View from above orbital plane
View from above satellite
View from above satellite

Ground track
Ground track

The orbit data is extracted from the following two-line orbital elements,

1 20480U 90013C   18051.84576012 -.00000035  00000-0 -66788-5 0  9995
2 20480  99.0684 143.7733 0540376 188.0219 171.1966 12.83419050313612
Epoch (UTC): 20 February 2018 20:17:53
Eccentricity: 0.0540376
inclination: 99.0684°
perigee height: 911 km
apogee height: 1744 km
right ascension of ascending node: 143.7733°
argument of perigee: 188.0219°
revolutions per day: 12.83419050
mean anomaly at epoch: 171.1966°
orbit number at epoch: 31361

The dashed part of the orbit path shows where the satellite is in the earth's shadow,  

DLR